Flag for Norway Weather past 2 weeks in Bryne, Norway

Now
49 °F

Cool.


Feels Like: 47 °F
Forecast: 41 / 49 °F
Wind: 7 mph from Southwest

Location: Obrestad

Current Time: May 22, 2015 at 2:31:24 PM

Latest Report: May 22, 2015 at 1:00 PM


Visibility: N/A

Pressure: 29.96 "Hg

Humidity: 96%

Dew point: 48 °F

Location of BryneLocation

Historic Weather in Bryne — Graph

°F

Bryne temperature yesterday

Maximum temperature yesterday: 51 °F (at 12:00 PM)
Minimum temperature yesterday: 42 °F (at 6:00 AM)
Average temperature yesterday: 47 °F

Past Weeks' High & Low Weather Summary

 TemperatureHumidityPressure
High51 °F (May 20, 6:00 PM)98% (May 11, 7:00 PM)30.18 "Hg (May 11, 7:00 PM)
Low35 °F (May 9, 4:00 AM)51% (May 9, 10:00 AM)29.23 "Hg (May 19, 6:00 AM)
Average46 °F84%29.84 "Hg
* Reported May 7 1:00 PM — May 22 1:00 PM, Bryne, Weather by CustomWeather, © 2015

Note: Actual official high and low records may vary slightly from our data, if they occured in-between our weather recording intervals... More about our weather records

Advertising

Bryne weather history for previous 24 hours

 ConditionsComfort  
Time TempWeatherWind HumidityBarometerVisibility
1:00 PM
Fri, May 22
49 °FCool.7 mph96%29.96 "HgN/A
12:00 PM49 °FCool.7 mph97%29.97 "HgN/A
11:00 AM49 °FCool.7 mph97%29.98 "HgN/A
10:00 AM49 °FCool.8 mph97%29.98 "HgN/A
9:00 AM49 °FCool.9 mph97%29.98 "HgN/A
8:00 AM48 °FCool.7 mph96%29.97 "HgN/A
7:00 AM48 °FCool.6 mph96%29.98 "HgN/A
6:00 AM48 °FCool.7 mph95%29.99 "HgN/A
5:00 AM48 °FCool.6 mph94%30.02 "HgN/A
4:00 AM48 °FCool.7 mph94%30.03 "HgN/A
3:00 AM48 °FCool.8 mph95%30.04 "HgN/A
2:00 AM48 °FCool.7 mph94%30.06 "HgN/A
1:00 AM48 °FCool.7 mph92%30.07 "HgN/A
12:00 AM48 °FCool.6 mph89%30.08 "HgN/A
10:00 PM
Thu, May 21
47 °FCool.6 mph88%30.09 "HgN/A
9:00 PM48 °FCool.6 mph91%30.08 "HgN/A
8:00 PM48 °FCool.6 mph88%30.08 "HgN/A
7:00 PM48 °FCool.6 mph86%30.08 "HgN/A
6:00 PM48 °FCool.6 mph84%30.08 "HgN/A
5:00 PM49 °FCool.6 mph84%30.08 "HgN/A
4:00 PM50 °FCool.5 mph82%30.08 "HgN/A
3:00 PM50 °FCool.6 mph82%30.08 "HgN/A
2:00 PM50 °FCool.5 mph84%30.07 "HgN/A
Weather by CustomWeather, © 2015

See weather overviewHow to use our weather pages